Regional Weather Roundup
Issued by NWS Charleston, SC

Home | Current Version | Previous Version | Text Only | Print | Product List | Glossary On
Versions: 1 2 3 4 5 6 7 8 9 10 11 12 13 14 15 16 17 18 19 20 21 22 23 24 25 26 27 28 29 30 31 32 33 34 35 36 37 38 39 40 41 42 43 44 45 46 47 48 49 50
000
ASUS42 KCHS 020026
RWRCHS

REGIONAL WEATHER ROUNDUP
NATIONAL WEATHER SERVICE CHARLESTON SC
800 PM EDT WED APR 01 2015

NOTE: "FAIR" INDICATES FEW OR NO CLOUDS BELOW 12,000 FEET WITH NO
SIGNIFICANT WEATHER AND/OR OBSTRUCTIONS TO VISIBILITY.

NOT ALL STATIONS ARE QUALITY CONTROLLED BY THE NATIONAL
WEATHER SERVICE. USE DATA WITH CAUTION...ESPECIALLY
DEWPOINT OBSERVATIONS.

SCZ027-030-031-034>040-042>050-020100-
...SOUTHEAST SOUTH CAROLINA...

CITY           SKY/WX    TMP DP  RH WIND       PRES   REMARKS
N CHARLESTON   PTCLDY    59  52  77 E12G21    30.15R
6HR MIN TEMP:  59; 6HR MAX TEMP:  70;

WATERFRONT PRK   N/A     59 N/A N/A E16         N/A
MOUNT PLEASANT FAIR      57  54  88 E3        30.16S
PINOPOLIS        N/A     64  50  59 SE7       30.06R
MONCKS CORNER  FAIR      61  50  67 E6        30.16R
SUMMERVILLE    FAIR      61  52  72 E5        30.16R
BEAUFORT MCAS  CLEAR     61  55  81 E9        30.13R
6HR MIN TEMP:  61; 6HR MAX TEMP:  77;

BEAUFORT ARPT  FAIR      61  55  82 E13       30.14R
HILTON HEAD IS PTCLDY    61  57  88 NE8       30.15R
WALTERBORO     CLEAR     61  52  72 SE9       30.15R
ALLENDALE      FAIR      66  57  72 SE12      30.11R

...SOUTHERN MIDLANDS AND PEE DEE...

CITY           SKY/WX    TMP DP  RH WIND       PRES   REMARKS
GEORGETOWN     NOT AVBL
KINGSTREE      NOT AVBL
ORANGEBURG     CLEAR     68  46  45 E5        30.10R
6HR MIN TEMP:  68; 6HR MAX TEMP:  76;

BARNWELL       FAIR      70  48  46 E8        30.11R
AIKEN          FAIR      68  41  37 E7        30.12R HAZE
MANNING        FAIR      63  45  51 SE3       30.15R
COLUMBIA       PTCLDY    70  43  37 E9        30.09R
6HR MIN TEMP:  70; 6HR MAX TEMP:  77;

SUMTER         CLEAR     66  44  44 E6        30.10R
6HR MIN TEMP:  66; 6HR MAX TEMP:  75;

FLORENCE       CLEAR     66  41  40 E6        30.13R
6HR MIN TEMP:  64; 6HR MAX TEMP:  74;

MYRTLE BEACH   CLEAR     57  46  67 E10       30.20R
N MYRTLE BEACH CLEAR     57  48  72 E8        30.18R
6HR MIN TEMP:  57; 6HR MAX TEMP:  62;


$$

GAZ063-065-086>088-099>101-113>116-118-119-134>141-150-020100-
...SOUTHEAST GEORGIA...

CITY           SKY/WX    TMP DP  RH WIND       PRES   REMARKS
SAVANNAH ARPT  MOCLDY    62  56  80 E12       30.12R
6HR MIN TEMP:  62; 6HR MAX TEMP:  81;

HUNTER AAF     CLOUDY    62  59  90 E13       30.10R
6HR MIN TEMP:  62; 6HR MAX TEMP:  80;

FORT STEWART   CLEAR     66  58  75 E10       30.08R
6HR MIN TEMP:  66; 6HR MAX TEMP:  81;

STATESBORO     PTCLDY    68  59  72 SE9G16    30.09R
SYLVANIA       PTCLDY    65  58  80 SE13G18   30.11R
CLAXTON        FAIR      68  61  77 SE9G20    30.08R

...CSRA...CENTRAL AND FAR SOUTHEAST GEORGIA...

CITY           SKY/WX    TMP DP  RH WIND       PRES   REMARKS
THOMSON        CLEAR     72  55  55 CALM      30.10R
AUGUSTA-BUSH   CLEAR     72  48  42 E9        30.06R
6HR MIN TEMP:  72; 6HR MAX TEMP:  82;

AUGUSTA-DANIEL CLEAR     75  46  35 E10       30.07R
SWAINSBORO     FAIR      72  50  46 SE3       30.07R
VIDALIA        CLEAR     73  59  60 S5        30.06R
EASTMAN        FAIR      71  60  69 CALM      30.08R
HAZLEHURST     FAIR      70  59  68 CALM      30.06R
ALMA           CLEAR     68  57  68 CALM      30.06R
6HR MIN TEMP:  68; 6HR MAX TEMP:  82;

WAYCROSS       CLEAR     74  60  62 CALM      30.07R
JESUP          FAIR      72  59  64 SE9       30.09R
BAXLEY         FAIR      72  61  68 CALM      30.07R
BRUNSWICK      CLEAR     63  55  77 NE7       30.11R
SAINT SIMONS   CLEAR     64  58  80 E8        30.09R
6HR MIN TEMP:  64; 6HR MAX TEMP:  81;


$$

SCZ027-028-034-036>038-045-046-048>050-GAZ119-141-020100-
...LAKE AND SUPPLEMENTAL COASTAL OBSERVATIONS...

STATION/POSITION TIME  TEMP    WIND        PRES    WAVE   SWELL
                       AIR SEA DIR/SP/G            HT/PER HT/PER/DIR
                 (UTC) (F)     (DEG/KT/KT) (MB)    (FT/S) (FT/S/D)
UPR LAKE MARION  NOT AVBL
WINYAH BAY       NOT AVBL
LAKE MURRAY      2300   74     140/  3/  5 1017.9R
ACE BASIN NERRS  NOT AVBL
FORT PULASKI     0000   61 62   60/ 16/ 20 1020.2R
SAPELO ISLAND    2300   67      80/ 11     1018.0R

$$

ANZ835-935-AMZ111-154-330-350-352-354-370-450-454-472-020100-
...C-MAN AND BUOY OBSERVATIONS...

STATION/POSITION TIME  TEMP    WIND        PRES    WAVE   SWELL
                       AIR SEA DIR/SP/G            HT/PER HT/PER/DIR
                 (UTC) (F)     (DEG/KT/KT) (MB)    (FT/S) (FT/S/D)
BUOY 41004       2350   64 68   60/ 17/ 21 1019.8R   7/ 7   2/11
BUOY 41008       2350   64 62   70/ 14/ 16 1019.1R   2/ 3
FOLLY BEACH CMAN 0000   60      70/ 15/ 18 1020.9R
CAPERS NEARSHORE NOT AVBL
FRIPP NEARSHORE  2300   61      90/ 17/ 21 1019.0R


STATION/POSITION TIME  TEMP    WIND        PRES    WAVE   SWELL
                       AIR SEA DIR/SP/G            HT/PER HT/PER/DIR
                 (UTC) (F)     (DEG/KT/KT) (MB)    (FT/S) (FT/S/D)
5E ST. MARYS GA  2321      63                N/A     1/13
FRYING PAN BUOY  2350   60 63   80/ 19/ 21 1021.8R   5/ 6   2/ 60/ 8
BUOY 41025       NOT AVBL
CAPE LOOKOUT NC  0000   53      40/ 18/ 21 1022.8R
BUOY 41002       2350   65 69   30/ 17/ 21 1019.7R   6/ 8   3/360/11
BUOY 41010       2320   74 76  280/ 10/ 12 1018.4
ST AUGUSTINE FL  0000   65 62   70/  7/  8 1019.3R


$$



USA.gov is the U.S. government's official web portal to all federal, state and local government web resources and services.